TimeCST,TemperatureF,Dew PointF,Humidity,Sea Level PressureIn,VisibilityMPH,Wind Direction,Wind SpeedMPH,Gust SpeedMPH,PrecipitationIn,Events,Conditions,WindDirDegrees,DateUTC
12:15 AM,21.2,15.8,80,30.06,10.0,WNW,12.7,-,N/A,,Clear,300,2013-02-28 06:15:00
12:35 AM,19.4,15.8,86,30.06,10.0,WNW,11.5,-,N/A,,Scattered Clouds,300,2013-02-28 06:35:00
12:55 AM,19.4,15.8,86,30.07,10.0,WNW,11.5,-,N/A,,Scattered Clouds,300,2013-02-28 06:55:00
1:15 AM,19.4,15.8,86,30.07,10.0,WNW,10.4,-,N/A,,Clear,300,2013-02-28 07:15:00
1:34 AM,19.4,14.0,80,30.07,10.0,WNW,12.7,-,N/A,,Clear,300,2013-02-28 07:34:00
1:55 AM,19.4,14.0,80,30.07,10.0,WNW,10.4,-,N/A,,Clear,300,2013-02-28 07:55:00
2:15 AM,19.4,12.2,74,30.08,10.0,WNW,9.2,-,N/A,,Clear,300,2013-02-28 08:15:00
2:34 AM,19.4,12.2,74,30.08,10.0,WNW,9.2,-,N/A,,Clear,300,2013-02-28 08:34:00
2:55 AM,19.4,12.2,74,30.08,10.0,WNW,9.2,-,N/A,,Clear,300,2013-02-28 08:55:00
3:15 AM,21.2,15.8,80,30.08,10.0,WNW,10.4,-,N/A,,Mostly Cloudy,290,2013-02-28 09:15:00
3:35 AM,21.2,17.6,86,30.08,10.0,WNW,12.7,-,N/A,,Overcast,290,2013-02-28 09:35:00
3:55 AM,23.0,17.6,80,30.09,10.0,WNW,12.7,-,N/A,,Overcast,300,2013-02-28 09:55:00
4:15 AM,24.8,17.6,74,30.09,10.0,WNW,11.5,17.3,N/A,,Overcast,290,2013-02-28 10:15:00
4:34 AM,24.8,17.6,74,30.10,10.0,WNW,12.7,-,N/A,,Overcast,300,2013-02-28 10:34:00
4:55 AM,24.8,17.6,74,30.10,10.0,WNW,11.5,-,N/A,,Overcast,300,2013-02-28 10:55:00
5:15 AM,24.8,17.6,74,30.11,10.0,WNW,11.5,-,N/A,,Overcast,300,2013-02-28 11:15:00
5:34 AM,24.8,17.6,74,30.11,10.0,WNW,9.2,-,N/A,,Overcast,300,2013-02-28 11:34:00
5:55 AM,24.8,17.6,74,30.12,10.0,WNW,10.4,-,N/A,,Overcast,300,2013-02-28 11:55:00
6:15 AM,24.8,17.6,74,30.12,10.0,WNW,10.4,-,N/A,,Overcast,300,2013-02-28 12:15:00
6:35 AM,24.8,17.6,74,30.13,10.0,WNW,10.4,-,N/A,,Overcast,290,2013-02-28 12:35:00
6:55 AM,24.8,17.6,74,30.13,10.0,WNW,11.5,-,N/A,,Overcast,290,2013-02-28 12:55:00
7:15 AM,24.8,17.6,74,30.13,10.0,WNW,10.4,-,N/A,,Overcast,300,2013-02-28 13:15:00
7:35 AM,24.8,17.6,74,30.13,10.0,WNW,10.4,-,N/A,,Overcast,290,2013-02-28 13:35:00
7:55 AM,24.8,17.6,74,30.14,10.0,WNW,11.5,-,N/A,,Overcast,290,2013-02-28 13:55:00
8:15 AM,24.8,17.6,74,30.14,10.0,WNW,11.5,-,N/A,,Overcast,290,2013-02-28 14:15:00
8:35 AM,24.8,17.6,74,30.14,10.0,West,11.5,-,N/A,,Overcast,280,2013-02-28 14:35:00
8:55 AM,24.8,19.4,80,30.15,10.0,WNW,11.5,-,N/A,,Overcast,290,2013-02-28 14:55:00
9:15 AM,24.8,19.4,80,30.15,10.0,WNW,12.7,-,N/A,,Overcast,290,2013-02-28 15:15:00
9:35 AM,26.6,19.4,74,30.16,10.0,WNW,13.8,-,N/A,,Overcast,290,2013-02-28 15:35:00
9:55 AM,26.6,19.4,74,30.16,10.0,WNW,11.5,-,N/A,,Overcast,290,2013-02-28 15:55:00
10:15 AM,26.6,19.4,74,30.17,10.0,WNW,11.5,-,N/A,,Overcast,300,2013-02-28 16:15:00
10:35 AM,26.6,19.4,74,30.17,10.0,WNW,10.4,-,N/A,,Overcast,300,2013-02-28 16:35:00
10:55 AM,28.4,21.2,74,30.17,10.0,WNW,10.4,-,N/A,,Overcast,300,2013-02-28 16:55:00
11:15 AM,28.4,21.2,74,30.17,10.0,WNW,10.4,-,N/A,,Overcast,300,2013-02-28 17:15:00
11:35 AM,28.4,21.2,74,30.18,10.0,WNW,11.5,-,N/A,,Overcast,300,2013-02-28 17:35:00
11:55 AM,28.4,21.2,74,30.17,10.0,WNW,11.5,-,N/A,,Overcast,300,2013-02-28 17:55:00
12:15 PM,28.4,21.2,74,30.17,10.0,WNW,10.4,-,N/A,,Overcast,300,2013-02-28 18:15:00
12:35 PM,30.2,21.2,69,30.17,10.0,WNW,11.5,-,N/A,,Overcast,300,2013-02-28 18:35:00
12:55 PM,30.2,21.2,69,30.17,10.0,NW,10.4,-,N/A,Snow,Light Snow,310,2013-02-28 18:55:00
1:15 PM,30.2,21.2,69,30.16,10.0,WNW,8.1,-,N/A,,Overcast,300,2013-02-28 19:15:00
1:35 PM,32.0,21.2,64,30.16,10.0,NW,13.8,-,N/A,,Overcast,310,2013-02-28 19:35:00
1:55 PM,32.0,21.2,64,30.16,10.0,NW,13.8,-,N/A,,Overcast,310,2013-02-28 19:55:00
2:15 PM,32.0,21.2,64,30.16,10.0,NNW,15.0,-,N/A,,Overcast,330,2013-02-28 20:15:00
2:35 PM,30.2,21.2,69,30.16,10.0,NW,11.5,-,N/A,,Overcast,320,2013-02-28 20:35:00
2:54 PM,30.2,21.2,69,30.16,10.0,NW,12.7,-,N/A,,Overcast,320,2013-02-28 20:54:00
3:15 PM,30.2,21.2,69,30.17,10.0,NW,11.5,-,N/A,,Overcast,320,2013-02-28 21:15:00
3:35 PM,30.2,21.2,69,30.17,10.0,NNW,11.5,-,N/A,,Overcast,330,2013-02-28 21:35:00
3:55 PM,30.2,21.2,69,30.17,7.0,NNW,11.5,-,N/A,Snow,Light Snow,330,2013-02-28 21:55:00
4:15 PM,30.2,21.2,69,30.17,10.0,NNW,6.9,-,N/A,Snow,Light Snow,330,2013-02-28 22:15:00
4:35 PM,30.2,21.2,69,30.17,10.0,NNW,11.5,-,N/A,,Overcast,330,2013-02-28 22:35:00
4:55 PM,30.2,21.2,69,30.18,10.0,NNW,10.4,-,N/A,,Overcast,330,2013-02-28 22:55:00
5:15 PM,30.2,21.2,69,30.18,10.0,NNW,10.4,-,N/A,Snow,Light Snow,330,2013-02-28 23:15:00
5:55 PM,28.4,19.4,69,30.18,10.0,NNW,9.2,-,N/A,,Overcast,330,2013-02-28 23:55:00
6:15 PM,28.4,19.4,69,30.19,10.0,NW,10.4,-,N/A,,Overcast,320,2013-03-01 00:15:00
6:34 PM,28.4,19.4,69,30.20,10.0,Calm,Calm,-,N/A,,Overcast,0,2013-03-01 00:34:00
6:55 PM,28.4,21.2,74,30.20,10.0,NW,8.1,-,N/A,,Overcast,320,2013-03-01 00:55:00
7:15 PM,28.4,21.2,74,30.20,10.0,Calm,Calm,-,N/A,,Overcast,0,2013-03-01 01:15:00
7:35 PM,28.4,21.2,74,30.20,10.0,NW,8.1,-,N/A,,Overcast,310,2013-03-01 01:35:00
7:55 PM,28.4,21.2,74,30.20,10.0,NW,8.1,-,N/A,,Overcast,310,2013-03-01 01:55:00
8:15 PM,28.4,21.2,74,30.20,10.0,NW,8.1,-,N/A,,Overcast,310,2013-03-01 02:15:00
8:35 PM,28.4,21.2,74,30.20,10.0,NW,10.4,-,N/A,,Overcast,310,2013-03-01 02:35:00
9:15 PM,28.4,21.2,74,30.21,10.0,NW,8.1,-,N/A,,Overcast,310,2013-03-01 03:15:00
9:35 PM,28.4,21.2,74,30.21,10.0,NW,9.2,-,N/A,,Overcast,310,2013-03-01 03:35:00
10:15 PM,28.4,21.2,74,30.21,10.0,Calm,Calm,-,N/A,Snow,Light Snow,0,2013-03-01 04:15:00
10:35 PM,28.4,21.2,74,30.21,10.0,NW,6.9,-,N/A,,Overcast,310,2013-03-01 04:35:00
10:55 PM,26.6,21.2,80,30.21,10.0,Calm,Calm,-,N/A,,Overcast,0,2013-03-01 04:55:00
11:14 PM,26.6,21.2,80,30.20,10.0,Calm,Calm,-,N/A,Snow,Light Snow,0,2013-03-01 05:14:00
11:35 PM,26.6,21.2,80,30.20,10.0,Calm,Calm,-,N/A,Snow,Light Snow,0,2013-03-01 05:35:00
11:55 PM,26.6,21.2,80,30.20,10.0,Calm,Calm,-,N/A,Snow,Light Snow,0,2013-03-01 05:55:00